sat.trackr.live / text

‹ back to catalog

PLEIADES 1A

NORAD 38012 · 2011-076F

PAYLOAD ACTIVE UNKNOWN

§ Identity

Operator
Country
FR
Launch date
2011-12-17
Launch site
FRGUI
Launch vehicle
Mass (kg)
RCS (m²)
5.35

Purposes: earth_obs

External: N2YO · Heavens-Above · Gunter

§ Orbital elements

Epoch: 2026-09-20T05:05:05.743392Z

Period
98.73 min
Inclination
98.1901°
Eccentricity
0.0001266
Mean motion
14.58543329 rev/d
Perigee alt
697.0 km
Apogee alt
698.8 km
Semi-major
7,076.0 km
B*
2.9418e-5
RAAN
337.0009°
Arg perigee
103.6508°
Mean anomaly
340.9653°
Rev number
78,584

§ Raw data

PLEIADES 1A1 38012U 11076F   26263.21187203  .00000091  00000+0  29418-4 0  99992 38012  98.1901 337.0009 0001266 103.6508 340.9653 14.58543329785840

JSON: /api/v1/satellites/38012 · /tle

For live sub-satellite position, see the globe view (requires WebGL).

§ Visibility from observer

Set your observer location to see the next 7 days of passes ≥ 10°. The values pass through the URL so the page stays shareable.

No JS? Fill the form by hand. The geolocation button needs JavaScript.